When you browse on this site, cookies collect data to enhance your experience and personalize the content and advertising you see.
Visit our Privacy Policy to learn more. By continuing to use the site, you agree to this use of cookies and data.
  • In Hungary
  • List of Countries
  • For 7 days
  • Water Temperature
  • Satellite Maps
  • Weather Map
  • News
  • Weather Widgets
  • user-avatar
    Login

    Hourly Weather Qizilcha

    Today, 19 December, Wednesday

    Time Temperature Precipitation Wind Pressure Humidity
    00:00 0°C° 0.5 mm 3 mps 701 mmHg 74%
    01:00 0°C° 0.5 mm 3 mps 701 mmHg 77%
    02:00 -1°C° 0.7 mm 3 mps 701 mmHg 81%
    03:00 -1°C° 0.7 mm 3 mps 701 mmHg 85%
    04:00 -2°C° 0 mm 3 mps 701 mmHg 91%
    05:00 -2°C° 0.7 mm 3 mps 701 mmHg 92%
    06:00 -2°C° 0.7 mm 3 mps 701 mmHg 92%
    07:00 -2°C° 0.7 mm 3 mps 702 mmHg 93%
    08:00 -2°C° 0.7 mm 3 mps 702 mmHg 93%
    09:00 -2°C° 0.7 mm 2 mps 702 mmHg 92%
    10:00 -3°C° 0.7 mm 2 mps 703 mmHg 92%
    11:00 -3°C° 0.5 mm 2 mps 703 mmHg 91%
    12:00 -3°C° 0.5 mm 2 mps 703 mmHg 90%
    13:00 -3°C° 0.5 mm 2 mps 703 mmHg 88%
    14:00 -3°C° 0.4 mm 2 mps 704 mmHg 87%
    15:00 -3°C° 0.4 mm 2 mps 704 mmHg 86%
    16:00 -3°C° 0.4 mm 2 mps 705 mmHg 85%
    17:00 -3°C° 0.2 mm 2 mps 705 mmHg 85%
    18:00 -4°C° 0.2 mm 2 mps 706 mmHg 85%
    19:00 -4°C° 0.2 mm 2 mps 706 mmHg 85%
    20:00 -5°C° 0 mm 2 mps 707 mmHg 86%
    21:00 -5°C° 0 mm 2 mps 707 mmHg 86%
    22:00 -4°C° 0 mm 1 mps 707 mmHg 86%
    23:00 -4°C° 0 mm 1 mps 707 mmHg 86%

    Tomorrow, 20 December, Thursday

    Time Temperature Precipitation Wind Pressure Humidity
    00:00 -4°C° 0 mm 1 mps 707 mmHg 86%
    01:00 -6°C° 0 mm 1 mps 708 mmHg 85%
    02:00 -6°C° 0 mm 1 mps 708 mmHg 84%
    03:00 -6°C° 0 mm 1 mps 708 mmHg 83%
    04:00 -6°C° 0 mm 1 mps 708 mmHg 82%
    05:00 -6°C° 0 mm 1 mps 708 mmHg 81%
    06:00 -7°C° 0 mm 2 mps 709 mmHg 79%
    07:00 -7°C° 0 mm 2 mps 709 mmHg 78%
    08:00 -6°C° 0 mm 2 mps 709 mmHg 76%
    09:00 -5°C° 0 mm 2 mps 709 mmHg 73%
    10:00 -5°C° 0 mm 3 mps 710 mmHg 71%
    11:00 -4°C° 0 mm 3 mps 709 mmHg 71%
    12:00 -2°C° 0 mm 3 mps 709 mmHg 71%
    13:00 -2°C° 0 mm 3 mps 709 mmHg 71%
    14:00 -4°C° 0 mm 3 mps 708 mmHg 74%
    15:00 -5°C° 0 mm 3 mps 708 mmHg 76%
    16:00 -5°C° 0 mm 3 mps 708 mmHg 79%
    17:00 -6°C° 0 mm 3 mps 708 mmHg 78%
    18:00 -7°C° 0 mm 4 mps 707 mmHg 77%
    19:00 -7°C° 0 mm 4 mps 707 mmHg 77%
    20:00 -7°C° 0 mm 4 mps 707 mmHg 77%
    21:00 -7°C° 0 mm 4 mps 707 mmHg 77%
    22:00 -5°C° 0 mm 4 mps 706 mmHg 77%
    23:00 -5°C° 0 mm 4 mps 706 mmHg 77%

    Day after tomorrow, 21 December, Friday

    Time Temperature Precipitation Wind Pressure Humidity
    00:00 -5°C° 0 mm 4 mps 706 mmHg 78%
    01:00 -5°C° 0 mm 4 mps 705 mmHg 79%
    02:00 -5°C° 0 mm 4 mps 705 mmHg 79%
    03:00 -5°C° 0 mm 4 mps 704 mmHg 79%
    04:00 -4°C° 0 mm 4 mps 704 mmHg 79%
    05:00 -4°C° 0 mm 4 mps 704 mmHg 78%
    06:00 -4°C° 0 mm 4 mps 703 mmHg 77%
    07:00 -4°C° 0 mm 4 mps 703 mmHg 76%
    08:00 -3°C° 0 mm 4 mps 703 mmHg 76%
    09:00 -2°C° 0 mm 5 mps 703 mmHg 75%
    10:00 -1°C° 0 mm 5 mps 702 mmHg 75%
    11:00 -1°C° 0 mm 4 mps 702 mmHg 75%
    12:00 0°C° 0 mm 4 mps 701 mmHg 75%
    13:00 +1°C° 0 mm 4 mps 701 mmHg 75%
    14:00 0°C° 0 mm 4 mps 700 mmHg 74%
    15:00 -1°C° 0 mm 4 mps 700 mmHg 73%
    16:00 -1°C° 0 mm 4 mps 700 mmHg 72%
    17:00 -1°C° 0 mm 4 mps 700 mmHg 70%
    18:00 -1°C° 0 mm 4 mps 700 mmHg 68%
    19:00 -2°C° 0 mm 4 mps 700 mmHg 66%
    20:00 0°C° 0 mm 3 mps 699 mmHg 65%
    21:00 0°C° 0 mm 3 mps 699 mmHg 64%
    22:00 0°C° 0 mm 3 mps 699 mmHg 63%
    23:00 +1°C° 0 mm 2 mps 699 mmHg 63%

    22 December, Saturday

    Time Temperature Precipitation Wind Pressure Humidity
    00:00 +1°C° 0 mm 2 mps 699 mmHg 64%
    01:00 +1°C° 0 mm 2 mps 699 mmHg 64%
    02:00 +1°C° 0.1 mm 2 mps 699 mmHg 65%
    03:00 +1°C° 0.1 mm 2 mps 699 mmHg 66%
    04:00 +1°C° 0.1 mm 2 mps 699 mmHg 66%
    05:00 +1°C° 0.2 mm 2 mps 699 mmHg 68%
    06:00 +1°C° 0.2 mm 2 mps 699 mmHg 70%
    07:00 -1°C° 0.2 mm 2 mps 699 mmHg 71%
    08:00 +1°C° 0.2 mm 2 mps 700 mmHg 73%
    09:00 +1°C° 0.2 mm 2 mps 700 mmHg 74%
    10:00 +2°C° 0.2 mm 2 mps 700 mmHg 75%
    11:00 +2°C° 0.2 mm 2 mps 700 mmHg 75%
    12:00 +2°C° 0.2 mm 2 mps 700 mmHg 75%
    13:00 +2°C° 0.2 mm 2 mps 700 mmHg 75%
    14:00 +2°C° 0.2 mm 2 mps 700 mmHg 76%
    15:00 +2°C° 0.2 mm 1 mps 700 mmHg 77%
    16:00 +2°C° 0.2 mm 1 mps 700 mmHg 79%
    17:00 +1°C° 0.1 mm 1 mps 700 mmHg 80%
    18:00 +1°C° 0.1 mm 1 mps 701 mmHg 81%
    19:00 +1°C° 0.1 mm 1 mps 701 mmHg 82%
    20:00 0°C° 0 mm 1 mps 701 mmHg 81%
    21:00 0°C° 0 mm 1 mps 701 mmHg 81%
    22:00 0°C° 0 mm 1 mps 701 mmHg 81%
    23:00 -1°C° 0 mm 1 mps 701 mmHg 81%

    23 December, Sunday

    Time Temperature Precipitation Wind Pressure Humidity
    00:00 -1°C° 0 mm 1 mps 701 mmHg 80%
    01:00 -1°C° 0 mm 1 mps 701 mmHg 80%
    02:00 -1°C° 0 mm 1 mps 701 mmHg 79%
    03:00 -1°C° 0 mm 1 mps 701 mmHg 78%
    04:00 -1°C° 0 mm 1 mps 701 mmHg 78%
    05:00 -1°C° 0 mm 1 mps 701 mmHg 77%
    06:00 -1°C° 0 mm 1 mps 702 mmHg 76%
    07:00 -1°C° 0 mm 1 mps 702 mmHg 76%
    08:00 -2°C° 0 mm 2 mps 702 mmHg 72%
    09:00 -1°C° 0 mm 2 mps 702 mmHg 69%
    10:00 +1°C° 0 mm 2 mps 703 mmHg 66%
    11:00 +1°C° 0 mm 2 mps 702 mmHg 65%
    12:00 +3°C° 0 mm 1 mps 702 mmHg 65%
    13:00 +3°C° 0 mm 1 mps 702 mmHg 64%
    14:00 +3°C° 0 mm 1 mps 702 mmHg 66%
    15:00 +2°C° 0 mm 1 mps 702 mmHg 69%
    16:00 +1°C° 0 mm 1 mps 702 mmHg 72%
    17:00 +1°C° 0 mm 1 mps 702 mmHg 72%
    18:00 -2°C° 0 mm 2 mps 702 mmHg 73%
    19:00 -2°C° 0 mm 2 mps 702 mmHg 73%
    20:00 -2°C° 0 mm 2 mps 702 mmHg 73%
    21:00 -2°C° 0 mm 2 mps 702 mmHg 73%
    22:00 -2°C° 0 mm 2 mps 702 mmHg 72%
    23:00 -2°C° 0 mm 2 mps 702 mmHg 73%

    24 December, Monday

    Time Temperature Precipitation Wind Pressure Humidity
    00:00 -2°C° 0 mm 2 mps 702 mmHg 73%
    01:00 -2°C° 0 mm 2 mps 702 mmHg 74%
    02:00 -2°C° 0 mm 2 mps 702 mmHg 74%
    03:00 -2°C° 0 mm 2 mps 702 mmHg 75%
    04:00 -2°C° 0 mm 2 mps 702 mmHg 76%
    05:00 -2°C° 0 mm 2 mps 702 mmHg 77%
    06:00 -2°C° 0 mm 2 mps 702 mmHg 77%
    07:00 -2°C° 0 mm 2 mps 702 mmHg 78%
    08:00 -1°C° 0 mm 2 mps 702 mmHg 76%
    09:00 +1°C° 0 mm 2 mps 703 mmHg 73%
    10:00 +2°C° 0 mm 2 mps 703 mmHg 70%
    11:00 +3°C° 0 mm 2 mps 702 mmHg 70%
    12:00 +3°C° 0 mm 2 mps 702 mmHg 69%
    13:00 +5°C° 0 mm 1 mps 702 mmHg 68%
    14:00 +3°C° 0 mm 2 mps 702 mmHg 72%
    15:00 +2°C° 0 mm 2 mps 701 mmHg 75%
    16:00 +2°C° 0 mm 2 mps 701 mmHg 78%
    17:00 +1°C° 0 mm 2 mps 701 mmHg 79%
    18:00 +1°C° 0 mm 2 mps 701 mmHg 79%
    19:00 0°C° 0 mm 3 mps 702 mmHg 79%
    20:00 +1°C° 0 mm 2 mps 701 mmHg 78%
    21:00 +1°C° 0 mm 2 mps 701 mmHg 77%
    22:00 +1°C° 0 mm 2 mps 701 mmHg 76%
    23:00 +1°C° 0 mm 2 mps 701 mmHg 75%
    Show more